Terminal Aerodrome Forecast
Issued by NWS Sterling, VA

Current Version | Previous Version | Graphics & Text | Print | Product List | Glossary On
Versions: 1 2 3 4 5 6 7 8 9 10 11 12 13 14 15 16 17 18 19 20 21 22
000
FTUS41 KLWX 101735
TAFIAD
TAF
KIAD 101735Z 1018/1124 27010G22KT P6SM SCT050
     FM102200 26008KT P6SM FEW060 SCT100
     FM110200 23004KT P6SM BKN100
     FM110900 22005KT P6SM SCT045
     FM111300 25004KT P6SM FEW250
     FM112100 17004KT P6SM BKN130=

USA.gov is the U.S. government's official web portal to all federal, state and local government web resources and services.